Location: Newark
(44.6028°N, 124.0883°W)
Time: 03:29:11
(UTC+00:00)

Tiros 1 despin weight - All Passes

Search period start: 18 October 2019 00:00
Search period end: 28 October 2019 00:00
Orbit: 594 x 643 km, 48.2° (Epoch: 17 October)

Date Brightness Start Highest point End Pass type
(mag) Time Alt. Az. Time Alt. Az. Time Alt. Az.
18 Oct - 09:31:19 10° SW 09:35:41 41° SE 09:40:07 10° ENE night (unlit)
18 Oct - 11:12:28 10° W 11:17:10 72° NNW 11:21:52 10° ENE visible
18 Oct - 12:54:29 10° WNW 12:59:08 55° N 13:03:44 10° E visible
18 Oct - 14:36:14 10° WNW 14:40:58 83° SSW 14:45:37 10° ESE daylight
18 Oct - 16:18:24 10° W 16:22:06 23° SW 16:25:44 10° S daylight
19 Oct - 08:08:11 10° S 08:11:11 17° SE 08:14:13 10° E night (unlit)
19 Oct - 09:47:31 10° SW 09:52:09 67° SSE 09:56:50 10° ENE visible
19 Oct - 11:29:14 10° W 11:33:53 58° N 11:38:32 10° ENE visible
19 Oct - 13:11:11 10° WNW 13:15:52 63° NNE 13:20:31 10° E visible
19 Oct - 14:52:54 10° WNW 14:57:29 54° SSW 15:02:00 10° SE daylight
19 Oct - 16:36:17 10° WSW 16:38:17 13° SW 16:40:16 10° SSW daylight
20 Oct - 08:23:24 10° SSW 08:27:26 30° SE 08:31:32 10° E night (unlit)
20 Oct - 10:04:03 10° WSW 10:08:44 84° NNW 10:13:28 10° ENE visible
20 Oct - 11:46:01 10° W 11:50:38 54° N 11:55:16 10° ENE visible
20 Oct - 13:27:50 10° WNW 13:32:34 81° NNE 13:37:15 10° ESE visible
20 Oct - 15:09:43 10° W 15:13:53 32° SW 15:18:00 10° SSE daylight
21 Oct - 07:01:28 10° SSE 07:03:04 12° SE 07:04:40 10° ESE night (unlit)
21 Oct - 08:39:20 10° SW 08:43:49 51° SSE 08:48:23 10° ENE night (unlit)
21 Oct - 10:20:45 10° W 10:25:25 65° NNW 10:30:06 10° ENE visible
21 Oct - 12:02:45 10° WNW 12:07:24 58° N 12:12:02 10° E visible
21 Oct - 13:44:28 10° WNW 13:49:09 70° SSW 13:53:48 10° SE visible
21 Oct - 15:26:57 10° W 15:30:09 18° SW 15:33:20 10° S daylight
22 Oct - 07:15:42 10° S 07:19:15 22° SE 07:22:49 10° E night (unlit)
22 Oct - 08:55:41 10° WSW 09:00:21 79° SSE 09:05:04 10° ENE night (unlit)
22 Oct - 10:37:32 10° W 10:42:09 56° N 10:46:47 10° ENE visible
22 Oct - 12:19:26 10° WNW 12:24:08 69° NNE 12:28:49 10° E visible
22 Oct - 14:01:10 10° WNW 14:05:38 43° SW 14:10:03 10° SE visible
23 Oct - 07:31:17 10° SSW 07:35:33 37° SE 07:39:53 10° ENE night (unlit)
23 Oct - 09:12:17 10° WSW 09:16:58 75° NNW 09:21:41 10° ENE night (unlit)
23 Oct - 10:54:18 10° WNW 10:58:55 55° N 11:03:33 10° E visible
23 Oct - 12:36:03 10° WNW 12:40:46 87° SSW 12:45:28 10° ESE visible
23 Oct - 14:18:07 10° W 14:21:58 26° SW 14:25:48 10° SSE daylight
24 Oct - 06:08:24 10° S 06:11:05 15° SE 06:13:47 10° E night (unlit)
24 Oct - 07:47:25 10° SW 07:51:59 62° SSE 07:56:37 10° ENE night (unlit)
24 Oct - 09:29:03 10° W 09:33:40 60° N 09:38:19 10° ENE night (unlit)
24 Oct - 11:11:00 10° WNW 11:15:40 61° N 11:20:20 10° E visible
24 Oct - 12:52:42 10° WNW 12:57:19 58° SSW 13:01:55 10° SE visible
24 Oct - 14:35:44 10° WSW 14:38:11 14° SW 14:40:38 10° SSW daylight
25 Oct - 06:23:25 10° SSW 06:27:19 27° SE 06:31:15 10° E night (unlit)
25 Oct - 08:03:53 10° WSW 08:08:33 88° NNW 08:13:16 10° ENE night (unlit)
25 Oct - 09:45:49 10° W 09:50:25 54° N 09:55:03 10° ENE night (unlit)
25 Oct - 11:27:39 10° WNW 11:32:21 78° NNE 11:37:04 10° ESE visible
25 Oct - 13:09:28 10° WNW 13:13:45 35° SW 13:17:59 10° SSE visible
26 Oct - 05:02:30 10° SE 05:02:58 10° SE 05:03:26 10° SE night (unlit)
26 Oct - 06:39:16 10° SW 06:43:40 46° SSE 06:48:09 10° ENE night (unlit)
26 Oct - 08:20:34 10° W 08:25:13 67° NNW 08:29:54 10° ENE night (unlit)
26 Oct - 10:02:34 10° WNW 10:07:11 56° N 10:11:49 10° E night (unlit)
26 Oct - 11:44:16 10° WNW 11:48:58 75° SSW 11:53:39 10° ESE visible
26 Oct - 13:26:36 10° W 13:30:02 20° SW 13:33:27 10° S visible
27 Oct - 05:15:49 10° S 05:19:08 20° SE 05:22:28 10° E night (unlit)
27 Oct - 06:55:34 10° WSW 07:00:09 75° SSE 07:04:50 10° ENE night (unlit)
27 Oct - 08:37:20 10° W 08:41:56 56° N 08:46:34 10° ENE night (unlit)
27 Oct - 10:19:14 10° WNW 10:23:55 67° NNE 10:28:36 10° E night (unlit)
27 Oct - 12:00:57 10° WNW 12:05:27 47° SSW 12:09:57 10° SE visible
27 Oct - 13:45:14 10° WSW 13:46:11 11° SW 13:47:09 10° SW visible
